TimeCDT,TemperatureF,Dew PointF,Humidity,Sea Level PressureIn,VisibilityMPH,Wind Direction,Wind SpeedMPH,Gust SpeedMPH,PrecipitationIn,Events,Conditions,WindDirDegrees,DateUTC
12:15 AM,72.9,63.7,73,30.02,10.0,East,11.5,-,N/A,,Clear,80,2012-10-12 05:15:00
12:35 AM,72.5,63.5,73,30.03,10.0,ENE,9.2,-,N/A,,Clear,70,2012-10-12 05:35:00
12:55 AM,72.3,63.3,73,30.02,10.0,ENE,6.9,-,N/A,,Clear,70,2012-10-12 05:55:00
1:15 AM,70.2,63.0,78,30.02,10.0,NE,9.2,-,N/A,,Clear,50,2012-10-12 06:15:00
1:35 AM,70.0,63.0,78,30.01,10.0,East,11.5,-,N/A,,Clear,90,2012-10-12 06:35:00
1:55 AM,70.2,62.8,77,30.02,10.0,ENE,9.2,-,N/A,,Clear,60,2012-10-12 06:55:00
3:15 AM,71.8,61.9,71,30.00,10.0,ESE,19.6,-,N/A,,Scattered Clouds,110,2012-10-12 08:15:00
3:35 AM,73.4,61.0,65,30.00,10.0,SE,16.1,-,N/A,,Scattered Clouds,130,2012-10-12 08:35:00
3:55 AM,72.5,61.0,67,30.00,10.0,Calm,Calm,-,N/A,,Scattered Clouds,0,2012-10-12 08:55:00
4:15 AM,73.0,57.0,57,29.99,10.0,WSW,9.2,-,N/A,,Clear,240,2012-10-12 09:15:00
4:35 AM,70.0,61.2,73,30.00,10.0,WSW,12.7,-,N/A,,Clear,240,2012-10-12 09:35:00
4:55 AM,68.9,61.7,78,30.02,10.0,SW,8.1,-,N/A,,Clear,230,2012-10-12 09:55:00
5:15 AM,69.4,60.1,72,30.02,10.0,Calm,Calm,-,N/A,,Clear,0,2012-10-12 10:15:00
5:35 AM,67.5,59.9,77,30.02,10.0,WNW,5.8,-,N/A,,Scattered Clouds,290,2012-10-12 10:35:00
5:55 AM,66.6,59.2,77,30.00,10.0,West,3.5,-,N/A,,Scattered Clouds,270,2012-10-12 10:55:00
6:15 AM,67.1,59.2,76,30.00,10.0,WNW,3.5,-,N/A,,Scattered Clouds,300,2012-10-12 11:15:00
6:35 AM,67.8,59.5,75,30.01,10.0,North,4.6,-,N/A,,Scattered Clouds,350,2012-10-12 11:35:00
6:55 AM,67.6,59.4,75,30.02,10.0,Calm,Calm,-,N/A,,Clear,0,2012-10-12 11:55:00
7:15 AM,66.2,59.0,78,30.03,10.0,ENE,10.4,-,N/A,,Clear,70,2012-10-12 12:15:00
7:35 AM,66.6,57.4,72,30.03,10.0,East,5.8,-,N/A,,Clear,80,2012-10-12 12:35:00
7:55 AM,66.2,56.8,72,30.02,10.0,East,6.9,-,N/A,,Clear,80,2012-10-12 12:55:00
8:15 AM,66.4,56.5,70,30.04,10.0,NE,4.6,-,N/A,,Clear,50,2012-10-12 13:15:00
8:35 AM,67.1,58.5,74,30.05,10.0,Calm,Calm,-,N/A,,Clear,0,2012-10-12 13:35:00
8:55 AM,67.8,59.9,76,30.06,10.0,East,4.6,-,N/A,,Clear,80,2012-10-12 13:55:00
9:15 AM,68.9,60.3,74,30.06,10.0,East,3.5,-,N/A,,Clear,80,2012-10-12 14:15:00
9:55 AM,71.1,61.7,72,30.07,10.0,Calm,Calm,-,N/A,,Clear,0,2012-10-12 14:55:00
10:15 AM,70.2,61.5,74,30.09,10.0,Calm,Calm,-,N/A,,Clear,0,2012-10-12 15:15:00
10:35 AM,72.3,61.9,70,30.07,10.0,Calm,Calm,-,N/A,,Clear,0,2012-10-12 15:35:00
11:15 AM,75.2,61.9,63,30.07,10.0,Calm,Calm,-,N/A,,Scattered Clouds,0,2012-10-12 16:15:00
11:55 AM,79.9,61.0,52,30.06,10.0,Calm,Calm,-,N/A,,Clear,0,2012-10-12 16:55:00
12:15 PM,80.6,61.2,51,30.06,10.0,Calm,Calm,-,N/A,,Clear,0,2012-10-12 17:15:00
12:35 PM,80.6,61.7,52,30.05,10.0,WSW,5.8,-,N/A,,Clear,240,2012-10-12 17:35:00
1:55 PM,85.1,58.6,41,30.02,10.0,South,5.8,-,N/A,,Clear,170,2012-10-12 18:55:00
2:35 PM,86.5,57.0,37,30.00,10.0,South,6.9,-,N/A,,Clear,170,2012-10-12 19:35:00
3:15 PM,86.9,57.9,37,29.99,10.0,South,5.8,-,N/A,,Clear,170,2012-10-12 20:15:00
3:55 PM,86.5,59.2,39,29.97,10.0,South,3.5,-,N/A,,Clear,170,2012-10-12 20:55:00
4:15 PM,87.8,58.8,37,29.96,10.0,SSW,3.5,-,N/A,,Clear,210,2012-10-12 21:15:00
4:35 PM,87.3,58.6,38,29.96,10.0,SW,5.8,-,N/A,,Clear,220,2012-10-12 21:35:00
4:55 PM,88.0,59.0,37,29.95,10.0,South,12.7,17.3,N/A,,Clear,180,2012-10-12 21:55:00
5:15 PM,86.2,59.4,40,29.95,10.0,SE,4.6,-,N/A,,Clear,130,2012-10-12 22:15:00
5:35 PM,86.2,58.5,39,29.93,10.0,SE,12.7,-,N/A,,Clear,140,2012-10-12 22:35:00
6:15 PM,85.3,58.5,40,29.93,10.0,SE,11.5,-,N/A,,Clear,130,2012-10-12 23:15:00
6:55 PM,81.9,61.7,50,29.93,10.0,ESE,12.7,-,N/A,,Clear,110,2012-10-12 23:55:00
7:15 PM,80.4,61.7,53,29.93,10.0,SE,16.1,-,N/A,,Clear,130,2012-10-13 00:15:00
7:35 PM,79.3,61.7,55,29.93,10.0,ESE,13.8,-,N/A,,Clear,110,2012-10-13 00:35:00
8:15 PM,78.1,61.9,57,29.93,10.0,ESE,17.3,23.0,N/A,,Clear,110,2012-10-13 01:15:00
8:35 PM,77.7,61.7,58,29.93,10.0,ESE,17.3,-,N/A,,Clear,120,2012-10-13 01:35:00
8:55 PM,77.2,61.7,59,29.94,10.0,SE,16.1,24.2,N/A,,Clear,130,2012-10-13 01:55:00
9:15 PM,77.0,61.0,58,29.94,10.0,SE,21.9,25.3,N/A,,Clear,130,2012-10-13 02:15:00
9:35 PM,76.3,61.0,59,29.93,10.0,ESE,17.3,-,N/A,,Clear,120,2012-10-13 02:35:00
9:55 PM,76.1,60.8,59,29.94,10.0,ESE,17.3,23.0,N/A,,Clear,120,2012-10-13 02:55:00
10:15 PM,75.2,60.6,60,29.95,10.0,SE,13.8,-,N/A,,Clear,130,2012-10-13 03:15:00
10:35 PM,75.2,60.8,61,29.95,10.0,SE,12.7,-,N/A,,Scattered Clouds,130,2012-10-13 03:35:00
11:35 PM,71.6,60.3,67,29.95,10.0,East,10.4,-,N/A,,Scattered Clouds,90,2012-10-13 04:35:00
11:55 PM,72.5,59.7,64,29.94,10.0,ESE,11.5,-,N/A,,Clear,110,2012-10-13 04:55:00